Showing default

FLYING LAPTOP, 42831

Orbit data source: Space-Track

FLYING LAPTOP, 42831 is a payload satellite owned by IRS Stuttgart (DE) in SSO that was launched on Fri, 14 Jul 2017 UTC via a SOYUZ-2-1A launch vehicle from the Tyuratam Missile And Space Complex (TTMTR). Payloads include a variety of satellites, spacecraft, and rockets equipped with specific instruments for various scientific and technological missions. These include communications satellites like Starlink; space stations such as the ISS; scientific satellites like the Hubble; Earth observation satellites from companies like Planet Labs, Umbra, and HawkEye 360; GPS; miniature CubeSats for education and research; and military/defense satellites.

Loading next visibility...
FLYING LAPTOP details
Identifier
42831, 2017-042G
Orbit
SSO
Last TLE update9 hours ago
Origin
Flag of DEIRS Stuttgart (DE / GER)
ManufacturerIRS Stuttgart
MissionOperational Amateur Technology
Bus & MotorFLP, Unknown motor
Mass120 kg wet, 120 kg dry
Launch date (UTC)
2017-07-14 (7 years ago)
Launch vehicle
SOYUZ-2-1A
Launch site
Tyuratam Missile And Space Complex (TTMTR)
Object type
Payload
Rocket body
Debris
Shape & HBRBox + 2 Pan, 2.1 m
Radar Cross Section0.788 m², Medium (>0.1 m² and < 1m²)

Expand to show TLE details & history

TLE from 9 hours ago
0 FLYING LAPTOP
1 42831U 17042G   24346.56805636  .00005846  00000-0  51099-3 0  9990
2 42831  97.3890 157.5394 0011869 191.8978 168.1966 14.97067601403654
Epoch: 2024-12-11T13:38Z
Definitive object data (Epoch: 2024-12-11T13:38:00.069Z)
Latitude-0.00003°
Longitude-127.72176°
Altitude587.104 km
Speed7.562 km/s
True Right ascension10h 30m 09s
True Declination0° 00' 00"
Sunlit
Object was in daylight at TLE epoch
Visualization TLE readout
Latitude-20.49612°
Longitude49.86592°
Altitude575.699 km
Speed7.576 km/s
Apparent Right ascension01h 08m 38s
Apparent Declination-68° 04' 49"
Sunlit
Object is in daylight
Visualization observer readout
Local Sidereal Time20:56:50
Azimuth157.941° S
Elevation-27.715°
Doppler factor1
Orbital elements
Apogee altitude581.209 km
Perigee altitude564.708 km
Semi-major axis6,951.095 km
Eccentricity0.0011869
Inclination97.389°
RAAN157.5394°
Arg. of periapsis191.8978°
True anomaly168.22438°
Mean anomaly168.1966°
Eccentric anomaly168.21049°
Mean motion3.7451 °/min
BSTAR0.00051099
Orbital period96.13 mins
Loading maneuver chart data...

FLYING LAPTOP Visibility forecast

Observer location: undefined°, undefined

Span
Click to sort rows by Start time (UTC) header in descending order
Start Az.
Max El. time (UTC)
Max El. Az.
Max El.
End time (UTC)
End Az.
6 mins2024-12-11 23:49:47.978Z35.835° NE2024-12-11 23:52:47.978Z85.746° E25.9°2024-12-11 23:55:47.978Z150.06° SSE
4 mins2024-12-12 01:26:47.978Z319.572° NNW2024-12-12 01:27:47.978Z300.941° NW18.654°2024-12-12 01:30:47.978Z248.489° W
5 mins2024-12-12 12:13:47.978Z210.386° SW2024-12-12 12:15:47.978Z257.622° W29.806°2024-12-12 12:18:47.978Z322.818° NNW
|